Regional Weather Roundup
Issued by NWS

Home | Current Version | Previous Version | Text Only | Print | Product List | Glossary Off
Versions: 1 2 3 4 5 6 7 8 9 10 11 12 13 14 15 16 17 18 19 20 21 22 23 24 25 26 27 28 29 30 31 32 33 34 35 36 37 38 39 40 41 42 43 44 45 46 47 48 49 50

911
ASUS45 KSLC 241510
RWRUT

UTAH REGIONAL WEATHER ROUNDUP
NATIONAL WEATHER SERVICE SALT LAKE CITY UT
800 AM MST SAT FEB 24 2018

UTZ001>011-023>025-241600-

NORTHERN UTAH

CITY           SKY/WX    TMP DP  RH WIND       PRES   REMARKS
BRIGHAM CITY   CLOUDY    24  13  63 S8        30.15S WCI  15
HILL AFB       FLURRIES  17  14  88 S9        30.12S WCI   6
LOGAN          CLOUDY    15   7  70 E7        30.12S WCI   5
OGDEN          CLOUDY    21  13  71 S8        30.13S WCI  11
SALT LAKE CITY CLOUDY    21  15  78 SE8       30.16S WCI  11
WENDOVER       CLOUDY    21  10  62 NE3       30.15S
HEBER CITY       N/A      5   0  78 SE3       30.09R
WEST JORDAN    CLOUDY    18  16  93 S12       30.16R WCI   5

$$

UTZ011>015-024>027-241600-

CENTRAL/NORTHEAST UTAH

CITY           SKY/WX    TMP DP  RH WIND       PRES   REMARKS
PROVO AIRPORT  MOCLDY    12   8  84 E3        30.20R
MOAB/CANYONLAN SUNNY     21   9  59 SE3       30.10R
DELTA          MOCLDY     0  -4  85 E5        30.18S WCI -10
PRICE          CLEAR     15   2  56 CALM      30.03R
RICHFIELD      CLEAR     10   5  79 CALM      30.16S
VERNAL         CLOUDY    14   9  80 N6        30.03R WCI   5

$$

UTZ013>016-019>022-027-241600-

SOUTHERN UTAH

CITY           SKY/WX    TMP DP  RH WIND       PRES   REMARKS
BRYCE CANYON   PTCLDY     2  -1  88 W9        30.05S WCI -13
CEDAR CITY     MOCLDY     4   3  96 CALM      30.14S
MILFORD        PTCLDY     2  -1  88 S8        30.17S WCI -12
ST GEORGE      MOSUNNY   26  19  74 E3        30.29R
HANKSVILLE     SUNNY     18   7  62 CALM      30.16R
KANAB          CLEAR     12   7  79 CALM      30.24R
BLANDING         N/A     11   9  93 N7        30.13S WCI   0

$$

REGIONAL REPORTS     COLORADO/ARIZONA

CITY           SKY/WX    TMP DP  RH WIND       PRES   REMARKS
CRAIG, CO      PTSUNNY    1  -2  87 CALM      30.00R
GRAND JUNCTION MOSUNNY   21  14  74 N7        30.07R WCI  12
RIFLE, CO      CLOUDY    18  15  88 W13       30.03R WCI   5
MONTROSE, CO   PTSUNNY    9   5  84 SE8       30.08R WCI  -3
CORTEZ, CO     SUNNY     11   8  88 NE5       30.08R WCI   3
COLORADO CITY    N/A     14  10  85 E5        30.22S WCI   6
PAGE, AZ       MOSUNNY   26   8  46 CALM      30.17R
GRAND CANYON   PTCLDY   -11 -14  86 VRB5      30.13R WCI -23
KINGMAN, AZ    CLEAR     25  20  81 E3        30.25S
FLAGSTAFF, AZ  PTSUNNY    0  -1  96 CALM      30.10R

$$

REGIONAL REPORTS    NEVADA/IDAHO/WYOMING

CITY           SKY/WX    TMP DP  RH WIND       PRES   REMARKS
LAS VEGAS, NV  CLEAR     34   8  33 CALM      30.29S
ELY, NY        CLOUDY    -3  -8  79 S14       30.13F WCI -22
ELKO, NV       CLOUDY    18   9  68 VRB6      30.13F WCI  10
POCATELLO, ID  CLOUDY    21  11  65 SW15      30.06R WCI   8
BURLEY, ID     CLOUDY    22  13  68 SW13      30.05F WCI  10
EVANSTON, WY   CLOUDY     8   5  87 SW18      29.96S FOG     WCI -11
ROCK SPRINGS,  PTSUNNY    9   1  70 W23       29.92R WCI -11

$$




USA.gov is the U.S. government's official web portal to all federal, state and local government web resources and services.